Location: ?????????
(38.5999°N, 22.7695°E)
Time: 13:27:32
(UTC+00:00)

Cosmos 2333 - Pass Details

Date: 23 May 2024
Orbit: 829 x 865 km, 70.9° (Epoch: 12 June)

Event Time Altitude Azimuth Distance (km) Brightness Sun altitude
Rises 01:46:19 0° 334° (NNW) 3,428 7.6 -14.4°
Reaches altitude 10° 01:48:46 10° 332° (NNW) 2,493 6.8 -14.0°
Maximum altitude 01:54:28 69° 251° (WSW) 917 4.2 -13.2°
Drops below altitude 10° 02:00:10 10° 168° (SSE) 2,495 6.4 -12.3°
Sets 02:02:38 0° 166° (SSE) 3,429 7.1 -12.0°
